CDT,Max TemperatureF,Mean TemperatureF,Min TemperatureF,Max Dew PointF,MeanDew PointF,Min DewpointF,Max Humidity, Mean Humidity, Min Humidity, Max Sea Level PressureIn, Mean Sea Level PressureIn, Min Sea Level PressureIn, Max VisibilityMiles, Mean VisibilityMiles, Min VisibilityMiles, Max Wind SpeedMPH, Mean Wind SpeedMPH, Max Gust SpeedMPH,PrecipitationIn, CloudCover, Events, WindDirDegrees
2013-4-1,77,67,55,63,57,49,88,73,40,30.05,29.98,29.91,10,8,4,12,5,17,0.00,5,,307
2013-4-2,81,66,50,49,45,40,83,52,23,30.14,30.07,30.01,10,10,7,10,2,,0.00,0,,107
2013-4-3,62,58,55,55,49,39,88,71,46,30.12,30.00,29.85,10,8,2,16,6,26,0.26,6,Rain-Thunderstorm,101
2013-4-4,69,63,57,58,56,52,88,78,64,29.96,29.91,29.86,10,7,2,10,6,,0.10,8,Rain,97
2013-4-5,66,58,51,52,47,44,88,75,44,30.09,29.99,29.90,10,7,2,14,7,21,0.03,6,Rain,20
2013-4-6,78,60,43,47,42,37,87,58,25,30.17,30.11,30.07,10,9,0,9,3,,0.00,0,Fog,171
2013-4-7,80,64,48,56,51,43,83,63,39,30.16,30.10,30.05,10,9,5,9,2,,0.00,2,,199
2013-4-8,82,70,57,57,54,53,88,71,37,30.12,30.06,30.03,10,6,0,12,3,17,0.00,2,Fog,170
2013-4-9,88,74,60,57,56,54,86,56,35,30.13,30.08,30.01,10,10,8,9,5,18,0.00,1,,179
2013-4-10,87,74,60,60,57,55,83,58,36,30.07,30.00,29.92,10,10,8,12,4,21,0.00,1,,177
2013-4-11,82,72,63,70,66,56,88,77,58,29.90,29.76,29.62,10,6,0,16,6,30,0.97,7,Fog-Rain-Thunderstorm,202
2013-4-12,73,64,54,64,50,41,84,63,30,29.97,29.86,29.74,10,10,9,17,9,23,0.00,4,,338
2013-4-13,82,65,48,50,43,35,86,50,19,30.05,29.99,29.94,10,10,10,8,2,16,0.00,0,,64
2013-4-14,63,61,59,57,54,48,90,80,59,30.04,29.92,29.72,10,6,1,21,7,31,2.06,6,Rain-Thunderstorm,91
2013-4-15,84,72,59,68,61,55,88,73,51,30.07,29.97,29.87,10,9,4,8,4,,0.00,5,,143
2013-4-16,88,78,68,67,65,63,84,68,48,30.14,30.11,30.06,10,9,5,10,3,17,0.00,3,,141
2013-4-17,84,76,69,66,65,62,84,70,54,30.17,30.10,30.04,10,9,3,10,4,,0.01,1,,154
2013-4-18,84,74,64,67,64,59,84,69,48,30.04,29.96,29.88,10,10,6,12,5,23,0.00,3,,189
2013-4-19,77,64,50,70,56,45,84,80,72,30.13,29.95,29.83,10,7,1,20,8,46,0.57,7,Rain-Thunderstorm,325
2013-4-20,69,56,43,45,39,34,83,59,30,30.24,30.18,30.13,10,10,7,14,4,21,0.01,0,,39
2013-4-21,75,60,46,46,41,37,71,51,28,30.23,30.18,30.13,10,10,10,15,4,21,0.00,0,,105
2013-4-22,72,64,57,58,52,43,84,66,55,30.19,30.13,30.09,10,10,7,14,6,18,0.00,4,,102
2013-4-23,78,66,55,58,55,52,87,66,43,30.16,30.10,30.04,10,9,4,8,2,,0.00,5,,154
2013-4-24,80,68,57,63,59,54,90,78,48,30.16,30.10,30.05,10,6,0,10,2,,0.01,5,Fog-Rain,208
2013-4-25,78,69,60,61,51,38,84,61,25,30.28,30.22,30.14,10,10,7,10,6,16,0.00,4,,17
2013-4-26,82,66,51,50,40,35,72,41,18,30.32,30.26,30.21,10,10,10,12,4,,0.00,0,,88
2013-4-27,84,70,55,64,58,49,83,68,46,30.23,30.16,30.08,10,9,3,8,3,18,0.00,3,,179
2013-4-28,82,74,66,66,63,57,88,75,42,30.13,30.04,29.96,10,5,0,10,3,18,0.11,6,Fog-Rain-Thunderstorm,217
2013-4-29,82,73,64,64,61,57,87,70,42,30.02,29.97,29.90,10,8,5,8,3,20,0.02,5,Thunderstorm,98
2013-4-30,82,72,62,64,62,59,88,76,47,30.00,29.96,29.92,10,6,0,8,2,17,0.01,4,Fog,151